Time,TemperatureF,DewpointF,PressureIn,WindDirection,WindDirectionDegrees,WindSpeedMPH,WindSpeedGustMPH,Humidity,HourlyPrecipIn,Conditions,Clouds,dailyrainin,SoftwareType,DateUTC
2013-03-09 00:00:00,32.7,27.2,29.95,NNE,22,0.0,0.0,80,0.00,,,0.00,Weather View 32 v70,2013-03-09 09:00:00,
2013-03-09 00:05:00,33.3,27.8,29.96,NNE,22,0.0,0.0,80,0.00,,,0.00,Weather View 32 v70,2013-03-09 09:05:00,
2013-03-09 00:10:00,33.3,27.8,29.96,NNE,22,0.0,0.0,80,0.00,,,0.00,Weather View 32 v70,2013-03-09 09:10:00,
2013-03-09 00:15:00,34.7,28.9,29.96,NNE,22,0.0,0.0,79,0.00,,,0.00,Weather View 32 v70,2013-03-09 09:15:00,
2013-03-09 00:20:00,34.7,28.9,29.96,NNE,22,0.0,0.0,79,0.00,,,0.00,Weather View 32 v70,2013-03-09 09:20:00,
2013-03-09 00:25:00,34.7,28.5,29.97,NNE,22,0.0,0.0,78,0.00,,,0.00,Weather View 32 v70,2013-03-09 09:25:00,
2013-03-09 00:30:00,34.7,28.9,29.97,NNE,22,0.0,0.0,79,0.00,,,0.00,Weather View 32 v70,2013-03-09 09:30:00,
2013-03-09 00:35:00,34.7,28.9,29.97,NNE,22,0.0,0.0,79,0.00,,,0.00,Weather View 32 v70,2013-03-09 09:35:00,
2013-03-09 00:40:00,34.5,28.7,29.97,NNE,22,0.0,0.0,79,0.00,,,0.00,Weather View 32 v70,2013-03-09 09:40:00,
2013-03-09 00:45:00,34.5,28.7,29.96,NNE,22,0.0,0.0,79,0.00,,,0.00,Weather View 32 v70,2013-03-09 09:45:00,
2013-03-09 00:50:00,34.7,28.9,29.96,NNE,22,0.0,0.0,79,0.00,,,0.00,Weather View 32 v70,2013-03-09 09:50:00,
2013-03-09 00:55:00,34.7,28.9,29.96,NNE,22,0.0,0.0,79,0.00,,,0.00,Weather View 32 v70,2013-03-09 09:55:00,
2013-03-09 01:00:00,34.5,28.7,29.96,NNE,22,0.0,0.0,79,0.00,,,0.00,Weather View 32 v70,2013-03-09 10:00:00,
2013-03-09 01:05:00,34.3,28.5,29.97,NNE,22,0.0,0.0,79,0.00,,,0.00,Weather View 32 v70,2013-03-09 10:05:00,
2013-03-09 01:10:00,34.3,28.5,29.97,NNE,22,0.0,0.0,79,0.00,,,0.00,Weather View 32 v70,2013-03-09 10:10:00,
2013-03-09 01:15:00,34.3,28.5,29.97,NNE,22,0.0,0.0,79,0.00,,,0.00,Weather View 32 v70,2013-03-09 10:15:00,
2013-03-09 01:20:00,34.2,28.3,29.97,NNE,22,0.0,0.0,79,0.00,,,0.00,Weather View 32 v70,2013-03-09 10:20:00,
2013-03-09 01:25:00,34.2,28.3,29.97,NNE,22,0.0,0.0,79,0.00,,,0.00,Weather View 32 v70,2013-03-09 10:25:00,
2013-03-09 01:30:00,34.0,28.2,29.97,NNE,22,0.0,0.0,79,0.00,,,0.00,Weather View 32 v70,2013-03-09 10:30:00,
2013-03-09 01:35:00,34.0,28.2,29.97,NNE,22,0.0,0.0,79,0.00,,,0.00,Weather View 32 v70,2013-03-09 10:35:00,
2013-03-09 01:40:00,33.6,27.5,29.97,NNE,22,0.0,0.0,78,0.00,,,0.00,Weather View 32 v70,2013-03-09 10:40:00,
2013-03-09 01:45:00,33.4,27.6,29.98,NNE,22,0.0,0.0,79,0.00,,,0.00,Weather View 32 v70,2013-03-09 10:45:00,
2013-03-09 01:50:00,33.4,27.6,29.98,NNE,22,0.0,0.0,79,0.00,,,0.00,Weather View 32 v70,2013-03-09 10:50:00,
2013-03-09 01:55:00,33.1,27.3,29.98,NNE,22,0.0,0.0,79,0.00,,,0.00,Weather View 32 v70,2013-03-09 10:55:00,
2013-03-09 02:00:00,32.7,26.9,29.98,NNE,22,0.0,0.0,79,0.00,,,0.00,Weather View 32 v70,2013-03-09 11:00:00,
2013-03-09 02:05:00,32.7,27.2,29.98,NNE,22,0.0,0.0,80,0.00,,,0.00,Weather View 32 v70,2013-03-09 11:05:00,
2013-03-09 02:10:00,32.7,27.2,29.98,NNE,22,0.0,0.0,80,0.00,,,0.00,Weather View 32 v70,2013-03-09 11:10:00,
2013-03-09 02:15:00,32.9,27.4,29.98,NNE,22,0.0,0.0,80,0.00,,,0.00,Weather View 32 v70,2013-03-09 11:15:00,
2013-03-09 02:20:00,33.3,27.8,29.98,NNE,22,0.0,0.0,80,0.00,,,0.00,Weather View 32 v70,2013-03-09 11:20:00,
2013-03-09 02:25:00,33.3,28.1,29.99,NNE,22,0.0,0.0,81,0.00,,,0.00,Weather View 32 v70,2013-03-09 11:25:00,
2013-03-09 02:30:00,33.3,28.1,29.99,NNE,22,0.0,0.0,81,0.00,,,0.00,Weather View 32 v70,2013-03-09 11:30:00,
2013-03-09 02:35:00,32.7,27.2,29.99,NNE,22,0.0,0.0,80,0.00,,,0.00,Weather View 32 v70,2013-03-09 11:35:00,
2013-03-09 02:40:00,32.5,27.4,29.99,NNE,22,0.0,0.0,81,0.00,,,0.00,Weather View 32 v70,2013-03-09 11:40:00,
2013-03-09 02:45:00,32.0,26.8,30.00,NNE,22,0.0,0.0,81,0.00,,,0.00,Weather View 32 v70,2013-03-09 11:45:00,
2013-03-09 02:50:00,31.8,26.7,30.00,NNE,22,0.0,0.0,81,0.00,,,0.00,Weather View 32 v70,2013-03-09 11:50:00,
2013-03-09 02:55:00,31.8,26.7,30.00,NNE,22,0.0,0.0,81,0.00,,,0.00,Weather View 32 v70,2013-03-09 11:55:00,
2013-03-09 03:00:00,31.6,26.8,30.00,NNE,22,0.0,0.0,82,0.00,,,0.00,Weather View 32 v70,2013-03-09 12:00:00,
2013-03-09 03:05:00,31.8,27.0,30.00,NNE,22,0.0,0.0,82,0.00,,,0.00,Weather View 32 v70,2013-03-09 12:05:00,
2013-03-09 03:10:00,31.8,27.0,30.00,NNE,22,0.0,0.0,82,0.00,,,0.00,Weather View 32 v70,2013-03-09 12:10:00,
2013-03-09 03:15:00,31.1,26.2,30.00,NNE,22,0.0,0.0,82,0.00,,,0.00,Weather View 32 v70,2013-03-09 12:15:00,
2013-03-09 03:20:00,31.1,26.2,30.00,NNE,22,0.0,0.0,82,0.00,,,0.00,Weather View 32 v70,2013-03-09 12:20:00,
2013-03-09 03:25:00,30.9,26.1,30.00,NNE,22,0.0,0.0,82,0.00,,,0.00,Weather View 32 v70,2013-03-09 12:25:00,
2013-03-09 03:30:00,31.1,26.2,30.00,NNE,22,0.0,0.0,82,0.00,,,0.00,Weather View 32 v70,2013-03-09 12:30:00,
2013-03-09 03:35:00,30.6,26.0,30.00,NNE,22,0.0,0.0,83,0.00,,,0.00,Weather View 32 v70,2013-03-09 12:35:00,
2013-03-09 03:40:00,30.4,25.5,30.00,NNE,22,0.0,0.0,82,0.00,,,0.00,Weather View 32 v70,2013-03-09 12:40:00,
2013-03-09 03:45:00,30.4,25.5,30.01,NNE,22,0.0,0.0,82,0.00,,,0.00,Weather View 32 v70,2013-03-09 12:45:00,
2013-03-09 03:50:00,30.4,25.8,30.01,NNE,22,0.0,0.0,83,0.00,,,0.00,Weather View 32 v70,2013-03-09 12:50:00,
2013-03-09 03:55:00,30.4,25.8,30.01,NNE,22,0.0,0.0,83,0.00,,,0.00,Weather View 32 v70,2013-03-09 12:55:00,
2013-03-09 04:00:00,30.4,25.8,30.01,NNE,22,0.0,0.0,83,0.00,,,0.00,Weather View 32 v70,2013-03-09 13:00:00,
2013-03-09 04:07:00,30.0,25.5,30.01,NNE,22,0.0,0.0,83,0.00,,,0.00,Weather View 32 v70,2013-03-09 13:07:00,
2013-03-09 04:12:00,30.4,26.1,30.01,NNE,22,0.0,0.0,84,0.00,,,0.00,Weather View 32 v70,2013-03-09 13:12:00,
2013-03-09 04:17:00,30.2,25.9,30.01,NNE,22,0.0,0.0,84,0.00,,,0.00,Weather View 32 v70,2013-03-09 13:17:00,
2013-03-09 04:22:00,30.4,26.1,30.01,NNE,22,0.0,0.0,84,0.00,,,0.00,Weather View 32 v70,2013-03-09 13:22:00,
2013-03-09 04:27:00,30.0,25.5,30.01,NNE,22,0.0,0.0,83,0.00,,,0.00,Weather View 32 v70,2013-03-09 13:27:00,
2013-03-09 04:32:00,30.0,25.8,30.01,NNE,22,0.0,0.0,84,0.00,,,0.00,Weather View 32 v70,2013-03-09 13:32:00,
2013-03-09 04:37:00,30.0,25.8,30.01,NNE,22,0.0,0.0,84,0.00,,,0.00,Weather View 32 v70,2013-03-09 13:37:00,
2013-03-09 04:42:00,29.7,25.1,30.01,NNE,22,0.0,0.0,83,0.00,,,0.00,Weather View 32 v70,2013-03-09 13:42:00,
2013-03-09 04:47:00,29.7,25.1,30.02,NNE,22,0.0,0.0,83,0.00,,,0.00,Weather View 32 v70,2013-03-09 13:47:00,
2013-03-09 04:52:00,29.3,25.1,30.02,NNE,22,0.0,0.0,84,0.00,,,0.00,Weather View 32 v70,2013-03-09 13:52:00,
2013-03-09 04:57:00,29.3,25.1,30.02,NNE,22,0.0,0.0,84,0.00,,,0.00,Weather View 32 v70,2013-03-09 13:57:00,
2013-03-09 05:02:00,29.3,25.1,30.02,NNE,22,0.0,0.0,84,0.00,,,0.00,Weather View 32 v70,2013-03-09 14:02:00,
2013-03-09 05:07:00,29.3,25.1,30.03,NNE,22,0.0,0.0,84,0.00,,,0.00,Weather View 32 v70,2013-03-09 14:07:00,
2013-03-09 05:12:00,29.1,24.9,30.03,NNE,22,0.0,0.0,84,0.00,,,0.00,Weather View 32 v70,2013-03-09 14:12:00,
2013-03-09 05:17:00,29.1,24.9,30.03,NNE,22,0.0,0.0,84,0.00,,,0.00,Weather View 32 v70,2013-03-09 14:17:00,
2013-03-09 05:22:00,28.9,24.7,30.03,NNE,22,0.0,0.0,84,0.00,,,0.00,Weather View 32 v70,2013-03-09 14:22:00,
2013-03-09 05:27:00,28.9,24.7,30.03,NNE,22,0.0,0.0,84,0.00,,,0.00,Weather View 32 v70,2013-03-09 14:27:00,
2013-03-09 05:32:00,28.9,24.7,30.03,NNE,22,0.0,0.0,84,0.00,,,0.00,Weather View 32 v70,2013-03-09 14:32:00,
2013-03-09 05:37:00,28.8,24.8,30.03,NNE,22,0.0,0.0,85,0.00,,,0.00,Weather View 32 v70,2013-03-09 14:37:00,
2013-03-09 05:42:00,28.9,25.0,30.03,NNE,22,0.0,0.0,85,0.00,,,0.00,Weather View 32 v70,2013-03-09 14:42:00,
2013-03-09 05:47:00,28.6,24.6,30.04,NNE,22,0.0,0.0,85,0.00,,,0.00,Weather View 32 v70,2013-03-09 14:47:00,
2013-03-09 05:52:00,28.6,24.6,30.04,NNE,22,0.0,0.0,85,0.00,,,0.00,Weather View 32 v70,2013-03-09 14:52:00,
2013-03-09 05:57:00,28.4,24.5,30.04,NNE,22,0.0,0.0,85,0.00,,,0.00,Weather View 32 v70,2013-03-09 14:57:00,
2013-03-09 06:02:00,28.6,24.6,30.04,NNE,22,0.0,0.0,85,0.00,,,0.00,Weather View 32 v70,2013-03-09 15:02:00,
2013-03-09 06:07:00,28.2,24.3,30.05,NNE,22,0.0,0.0,85,0.00,,,0.00,Weather View 32 v70,2013-03-09 15:07:00,
2013-03-09 06:12:00,28.2,24.3,30.05,NNE,22,0.0,0.0,85,0.00,,,0.00,Weather View 32 v70,2013-03-09 15:12:00,
2013-03-09 06:17:00,28.0,24.1,30.05,NNE,22,0.0,0.0,85,0.00,,,0.00,Weather View 32 v70,2013-03-09 15:17:00,
2013-03-09 06:22:00,28.2,24.3,30.05,NNE,22,0.0,0.0,85,0.00,,,0.00,Weather View 32 v70,2013-03-09 15:22:00,
2013-03-09 06:27:00,28.2,24.3,30.05,NNE,22,0.0,0.0,85,0.00,,,0.00,Weather View 32 v70,2013-03-09 15:27:00,
2013-03-09 06:32:00,28.2,24.3,30.05,NNE,22,0.0,0.0,85,0.00,,,0.00,Weather View 32 v70,2013-03-09 15:32:00,
2013-03-09 06:37:00,28.2,24.3,30.05,NNE,22,0.0,0.0,85,0.00,,,0.00,Weather View 32 v70,2013-03-09 15:37:00,
2013-03-09 06:42:00,27.9,23.9,30.05,NNE,22,0.0,0.0,85,0.00,,,0.00,Weather View 32 v70,2013-03-09 15:42:00,
2013-03-09 06:47:00,27.9,23.9,30.05,NNE,22,0.0,0.0,85,0.00,,,0.00,Weather View 32 v70,2013-03-09 15:47:00,
2013-03-09 06:52:00,27.9,23.9,30.05,NNE,22,0.0,0.0,85,0.00,,,0.00,Weather View 32 v70,2013-03-09 15:52:00,
2013-03-09 06:57:00,27.7,24.0,30.05,NNE,22,0.0,0.0,86,0.00,,,0.00,Weather View 32 v70,2013-03-09 15:57:00,
2013-03-09 07:02:00,27.7,24.0,30.05,NNE,22,0.0,0.0,86,0.00,,,0.00,Weather View 32 v70,2013-03-09 16:02:00,
2013-03-09 07:07:00,27.7,24.0,30.06,NNE,22,0.0,0.0,86,0.00,,,0.00,Weather View 32 v70,2013-03-09 16:07:00,
2013-03-09 07:12:00,27.7,24.0,30.06,NNE,22,0.0,0.0,86,0.00,,,0.00,Weather View 32 v70,2013-03-09 16:12:00,
2013-03-09 07:17:00,27.9,24.2,30.06,NNE,22,0.0,0.0,86,0.00,,,0.00,Weather View 32 v70,2013-03-09 16:17:00,
2013-03-09 07:22:00,27.9,24.2,30.06,NNE,22,0.0,0.0,86,0.00,,,0.00,Weather View 32 v70,2013-03-09 16:22:00,
2013-03-09 07:27:00,27.9,24.2,30.07,NNE,22,0.0,0.0,86,0.00,,,0.00,Weather View 32 v70,2013-03-09 16:27:00,
2013-03-09 07:32:00,28.2,24.6,30.07,NNE,22,0.0,0.0,86,0.00,,,0.00,Weather View 32 v70,2013-03-09 16:32:00,
2013-03-09 07:37:00,28.6,24.9,30.07,NNE,22,0.0,0.0,86,0.00,,,0.00,Weather View 32 v70,2013-03-09 16:37:00,
2013-03-09 07:42:00,28.9,25.6,30.07,NNE,22,0.0,0.0,87,0.00,,,0.00,Weather View 32 v70,2013-03-09 16:42:00,
2013-03-09 07:47:00,29.7,26.3,30.08,NNE,22,0.0,0.0,87,0.00,,,0.00,Weather View 32 v70,2013-03-09 16:47:00,
2013-03-09 07:52:00,30.0,26.6,30.08,NNE,22,0.0,0.0,87,0.00,,,0.00,Weather View 32 v70,2013-03-09 16:52:00,
2013-03-09 07:57:00,30.2,26.5,30.08,NNE,22,0.0,0.0,86,0.00,,,0.00,Weather View 32 v70,2013-03-09 16:57:00,
2013-03-09 08:02:00,30.0,26.3,30.08,NNE,22,0.0,0.0,86,0.00,,,0.00,Weather View 32 v70,2013-03-09 17:02:00,
2013-03-09 08:07:00,29.7,25.7,30.10,NNE,22,0.0,0.0,85,0.00,,,0.00,Weather View 32 v70,2013-03-09 17:07:00,
2013-03-09 08:12:00,29.7,25.7,30.10,NNE,22,0.0,0.0,85,0.00,,,0.00,Weather View 32 v70,2013-03-09 17:12:00,
2013-03-09 08:17:00,29.7,25.7,30.10,NNE,22,0.0,0.0,85,0.00,,,0.00,Weather View 32 v70,2013-03-09 17:17:00,
2013-03-09 08:22:00,29.5,25.8,30.10,NNE,22,0.0,0.0,86,0.00,,,0.00,Weather View 32 v70,2013-03-09 17:22:00,
2013-03-09 08:27:00,29.8,26.2,30.12,NNE,22,0.0,0.0,86,0.00,,,0.00,Weather View 32 v70,2013-03-09 17:27:00,
2013-03-09 08:32:00,29.8,25.9,30.12,NNE,22,0.0,0.0,85,0.00,,,0.00,Weather View 32 v70,2013-03-09 17:32:00,
2013-03-09 08:37:00,30.4,26.4,30.12,NNE,22,0.0,0.0,85,0.00,,,0.00,Weather View 32 v70,2013-03-09 17:37:00,
2013-03-09 08:42:00,30.0,26.1,30.12,NNE,22,0.0,0.0,85,0.00,,,0.00,Weather View 32 v70,2013-03-09 17:42:00,
2013-03-09 08:47:00,30.0,26.1,30.12,NNE,22,0.0,0.0,85,0.00,,,0.00,Weather View 32 v70,2013-03-09 17:47:00,
2013-03-09 08:52:00,30.4,26.4,30.12,NNE,22,0.0,0.0,85,0.00,,,0.00,Weather View 32 v70,2013-03-09 17:52:00,
2013-03-09 08:57:00,30.4,26.1,30.12,NNE,22,0.0,0.0,84,0.00,,,0.00,Weather View 32 v70,2013-03-09 17:57:00,
2013-03-09 09:02:00,30.6,26.3,30.12,NNE,22,0.0,0.0,84,0.00,,,0.00,Weather View 32 v70,2013-03-09 18:02:00,
2013-03-09 09:07:00,30.7,26.5,30.13,NNE,22,0.0,0.0,84,0.00,,,0.00,Weather View 32 v70,2013-03-09 18:07:00,
2013-03-09 09:12:00,30.9,26.4,30.13,NNE,22,0.0,0.0,83,0.00,,,0.00,Weather View 32 v70,2013-03-09 18:12:00,
2013-03-09 09:17:00,31.5,26.9,30.13,NNE,22,0.0,0.0,83,0.00,,,0.00,Weather View 32 v70,2013-03-09 18:17:00,
2013-03-09 09:22:00,31.5,26.6,30.13,NNE,22,0.0,0.0,82,0.00,,,0.00,Weather View 32 v70,2013-03-09 18:22:00,
2013-03-09 09:27:00,31.8,27.0,30.14,NNE,22,0.0,0.0,82,0.00,,,0.00,Weather View 32 v70,2013-03-09 18:27:00,
2013-03-09 09:32:00,31.8,27.0,30.14,NNE,22,0.0,0.0,82,0.00,,,0.00,Weather View 32 v70,2013-03-09 18:32:00,
2013-03-09 09:37:00,32.2,27.3,30.14,NNE,22,0.0,0.0,82,0.00,,,0.00,Weather View 32 v70,2013-03-09 18:37:00,
2013-03-09 09:42:00,32.5,27.7,30.14,NNE,22,0.0,0.0,82,0.00,,,0.00,Weather View 32 v70,2013-03-09 18:42:00,
2013-03-09 09:47:00,32.5,27.7,30.14,NNE,22,0.0,0.0,82,0.00,,,0.00,Weather View 32 v70,2013-03-09 18:47:00,
2013-03-09 09:52:00,32.7,27.5,30.14,NNE,22,0.0,0.0,81,0.00,,,0.00,Weather View 32 v70,2013-03-09 18:52:00,
2013-03-09 09:57:00,33.4,28.2,30.14,NNE,22,0.0,0.0,81,0.00,,,0.00,Weather View 32 v70,2013-03-09 18:57:00,
2013-03-09 10:02:00,34.0,28.5,30.14,NNE,22,0.0,0.0,80,0.00,,,0.00,Weather View 32 v70,2013-03-09 19:02:00,
2013-03-09 10:07:00,34.2,28.6,30.15,NNE,22,0.0,0.0,80,0.00,,,0.00,Weather View 32 v70,2013-03-09 19:07:00,
2013-03-09 10:12:00,34.2,28.3,30.15,NNE,22,0.0,0.0,79,0.00,,,0.00,Weather View 32 v70,2013-03-09 19:12:00,
2013-03-09 10:17:00,34.3,28.5,30.15,NNE,22,0.0,0.0,79,0.00,,,0.00,Weather View 32 v70,2013-03-09 19:17:00,
2013-03-09 10:22:00,34.3,28.5,30.15,NNE,22,0.0,0.0,79,0.00,,,0.00,Weather View 32 v70,2013-03-09 19:22:00,
2013-03-09 10:27:00,34.7,28.9,30.15,NNE,22,0.0,0.0,79,0.00,,,0.00,Weather View 32 v70,2013-03-09 19:27:00,
2013-03-09 10:32:00,34.9,29.0,30.15,NNE,22,0.0,0.0,79,0.00,,,0.00,Weather View 32 v70,2013-03-09 19:32:00,
2013-03-09 10:37:00,35.4,29.2,30.15,NNE,22,0.0,0.0,78,0.00,,,0.00,Weather View 32 v70,2013-03-09 19:37:00,
2013-03-09 10:42:00,35.4,29.2,30.15,NNE,22,0.0,0.0,78,0.00,,,0.00,Weather View 32 v70,2013-03-09 19:42:00,
2013-03-09 10:47:00,36.3,29.8,30.16,NNE,22,0.0,0.0,77,0.00,,,0.00,Weather View 32 v70,2013-03-09 19:47:00,
2013-03-09 10:52:00,36.9,30.0,30.16,NNE,22,0.0,0.0,76,0.00,,,0.00,Weather View 32 v70,2013-03-09 19:52:00,
2013-03-09 10:57:00,37.9,30.7,30.16,NNE,22,0.0,0.0,75,0.00,,,0.00,Weather View 32 v70,2013-03-09 19:57:00,
2013-03-09 11:02:00,38.5,30.6,30.16,NNE,22,0.0,0.0,73,0.00,,,0.00,Weather View 32 v70,2013-03-09 20:02:00,
2013-03-09 11:07:00,39.2,30.9,30.16,NNE,22,0.0,0.0,72,0.00,,,0.00,Weather View 32 v70,2013-03-09 20:07:00,
2013-03-09 11:12:00,40.5,31.8,30.16,NNE,22,0.0,0.0,71,0.00,,,0.00,Weather View 32 v70,2013-03-09 20:12:00,
2013-03-09 11:17:00,41.5,32.1,30.16,NNE,22,0.0,0.0,69,0.00,,,0.00,Weather View 32 v70,2013-03-09 20:17:00,
2013-03-09 11:22:00,43.2,32.9,30.16,NNE,22,0.0,0.0,67,0.00,,,0.00,Weather View 32 v70,2013-03-09 20:22:00,
2013-03-09 11:27:00,43.3,32.7,30.16,NNE,22,0.0,0.0,66,0.00,,,0.00,Weather View 32 v70,2013-03-09 20:27:00,
2013-03-09 11:32:00,43.0,32.0,30.16,NNE,22,0.0,0.0,65,0.00,,,0.00,Weather View 32 v70,2013-03-09 20:32:00,
2013-03-09 11:37:00,43.3,32.0,30.16,NNE,22,0.0,0.0,64,0.00,,,0.00,Weather View 32 v70,2013-03-09 20:37:00,
2013-03-09 11:42:00,44.4,32.6,30.16,NNE,22,0.0,0.0,63,0.00,,,0.00,Weather View 32 v70,2013-03-09 20:42:00,
2013-03-09 11:47:00,45.7,33.0,30.14,NNE,22,0.0,0.0,61,0.00,,,0.00,Weather View 32 v70,2013-03-09 20:47:00,
2013-03-09 11:52:00,47.3,33.2,30.14,NNE,22,0.0,0.0,58,0.00,,,0.00,Weather View 32 v70,2013-03-09 20:52:00,
2013-03-09 11:57:00,48.0,32.1,30.14,NNE,22,0.0,0.0,54,0.00,,,0.00,Weather View 32 v70,2013-03-09 20:57:00,
2013-03-09 12:02:00,49.5,33.0,30.14,NNE,22,0.0,0.0,53,0.00,,,0.00,Weather View 32 v70,2013-03-09 21:02:00,
2013-03-09 12:07:00,49.3,33.3,30.15,NNE,22,0.0,0.0,54,0.00,,,0.00,Weather View 32 v70,2013-03-09 21:07:00,
2013-03-09 12:12:00,49.3,33.3,30.15,NNE,22,0.0,0.0,54,0.00,,,0.00,Weather View 32 v70,2013-03-09 21:12:00,
2013-03-09 12:17:00,53.1,34.9,30.15,NNE,22,0.0,0.0,50,0.00,,,0.00,Weather View 32 v70,2013-03-09 21:17:00,
2013-03-09 12:22:00,52.9,33.2,30.15,NNE,22,0.0,0.0,47,0.00,,,0.00,Weather View 32 v70,2013-03-09 21:22:00,
2013-03-09 12:27:00,53.8,34.0,30.16,NNE,22,0.0,0.0,47,0.00,,,0.00,Weather View 32 v70,2013-03-09 21:27:00,
2013-03-09 12:32:00,54.0,33.6,30.16,NNE,22,0.0,0.0,46,0.00,,,0.00,Weather View 32 v70,2013-03-09 21:32:00,
2013-03-09 12:37:00,54.1,33.2,30.16,NNE,22,0.0,0.0,45,0.00,,,0.00,Weather View 32 v70,2013-03-09 21:37:00,
2013-03-09 12:42:00,54.7,33.2,30.16,NNE,22,0.0,0.0,44,0.00,,,0.00,Weather View 32 v70,2013-03-09 21:42:00,
2013-03-09 12:47:00,53.8,31.2,30.16,NNE,22,0.0,0.0,42,0.00,,,0.00,Weather View 32 v70,2013-03-09 21:47:00,
2013-03-09 12:52:00,54.7,32.0,30.16,NNE,22,0.0,0.0,42,0.00,,,0.00,Weather View 32 v70,2013-03-09 21:52:00,
2013-03-09 12:57:00,54.7,32.0,30.16,NNE,22,0.0,0.0,42,0.00,,,0.00,Weather View 32 v70,2013-03-09 21:57:00,
2013-03-09 13:02:00,53.8,31.8,30.16,NNE,22,0.0,0.0,43,0.00,,,0.00,Weather View 32 v70,2013-03-09 22:02:00,
2013-03-09 13:07:00,52.9,31.0,30.15,NNE,22,0.0,0.0,43,0.00,,,0.00,Weather View 32 v70,2013-03-09 22:07:00,
2013-03-09 13:12:00,52.5,30.6,30.15,NNE,22,0.0,0.0,43,0.00,,,0.00,Weather View 32 v70,2013-03-09 22:12:00,
2013-03-09 13:17:00,51.8,31.1,30.15,NNE,22,0.0,0.0,45,0.00,,,0.00,Weather View 32 v70,2013-03-09 22:17:00,
2013-03-09 13:22:00,51.1,30.4,30.15,NNE,22,0.0,0.0,45,0.00,,,0.00,Weather View 32 v70,2013-03-09 22:22:00,
2013-03-09 13:27:00,50.5,29.9,30.17,NNE,22,0.0,0.0,45,0.00,,,0.00,Weather View 32 v70,2013-03-09 22:27:00,
2013-03-09 13:32:00,50.2,30.2,30.17,NNE,22,0.0,0.0,46,0.00,,,0.00,Weather View 32 v70,2013-03-09 22:32:00,
2013-03-09 13:37:00,49.8,30.4,30.17,NNE,22,0.0,0.0,47,0.00,,,0.00,Weather View 32 v70,2013-03-09 22:37:00,
2013-03-09 13:42:00,49.5,30.6,30.17,NNE,22,0.0,0.0,48,0.00,,,0.00,Weather View 32 v70,2013-03-09 22:42:00,
2013-03-09 13:47:00,49.5,29.5,30.18,NNE,22,0.0,0.0,46,0.00,,,0.00,Weather View 32 v70,2013-03-09 22:47:00,
2013-03-09 13:52:00,49.1,30.2,30.18,NNE,22,0.0,0.0,48,0.00,,,0.00,Weather View 32 v70,2013-03-09 22:52:00,
2013-03-09 13:57:00,48.4,30.1,30.18,NNE,22,0.0,0.0,49,0.00,,,0.00,Weather View 32 v70,2013-03-09 22:57:00,
2013-03-09 14:02:00,47.7,29.4,30.18,NNE,22,0.0,0.0,49,0.00,,,0.00,Weather View 32 v70,2013-03-09 23:02:00,
2013-03-09 14:07:00,47.1,29.4,30.17,NNE,22,0.0,0.0,50,0.00,,,0.00,Weather View 32 v70,2013-03-09 23:07:00,
2013-03-09 14:12:00,46.8,29.6,30.17,NNE,22,0.0,0.0,51,0.00,,,0.00,Weather View 32 v70,2013-03-09 23:12:00,
2013-03-09 14:17:00,46.9,29.7,30.17,NNE,22,0.0,0.0,51,0.00,,,0.00,Weather View 32 v70,2013-03-09 23:17:00,
2013-03-09 14:22:00,46.4,29.2,30.17,NNE,22,0.0,0.0,51,0.00,,,0.00,Weather View 32 v70,2013-03-09 23:22:00,
2013-03-09 14:27:00,45.9,29.2,30.18,NNE,22,0.0,0.0,52,0.00,,,0.00,Weather View 32 v70,2013-03-09 23:27:00,
2013-03-09 14:32:00,45.9,29.2,30.18,NNE,22,0.0,0.0,52,0.00,,,0.00,Weather View 32 v70,2013-03-09 23:32:00,
2013-03-09 14:37:00,45.5,29.3,30.18,NNE,22,0.0,0.0,53,0.00,,,0.00,Weather View 32 v70,2013-03-09 23:37:00,
2013-03-09 14:42:00,45.3,29.2,30.18,NNE,22,0.0,0.0,53,0.00,,,0.00,Weather View 32 v70,2013-03-09 23:42:00,
2013-03-09 14:47:00,45.1,29.5,30.18,NNE,22,0.0,0.0,54,0.00,,,0.00,Weather View 32 v70,2013-03-09 23:47:00,
2013-03-09 14:52:00,45.0,29.3,30.18,NNE,22,0.0,0.0,54,0.00,,,0.00,Weather View 32 v70,2013-03-09 23:52:00,
2013-03-09 14:57:00,44.4,28.8,30.18,NNE,22,0.0,0.0,54,0.00,,,0.00,Weather View 32 v70,2013-03-09 23:57:00,
2013-03-09 15:02:00,44.4,29.2,30.18,NNE,22,0.0,0.0,55,0.00,,,0.00,Weather View 32 v70,2013-03-10 00:02:00,
2013-03-09 15:07:00,44.2,29.1,30.19,NNE,22,0.0,0.0,55,0.00,,,0.00,Weather View 32 v70,2013-03-10 00:07:00,
2013-03-09 15:12:00,44.1,29.3,30.19,NNE,22,0.0,0.0,56,0.00,,,0.00,Weather View 32 v70,2013-03-10 00:12:00,
2013-03-09 15:17:00,43.7,29.9,30.19,NNE,22,0.0,0.0,58,0.00,,,0.00,Weather View 32 v70,2013-03-10 00:17:00,
2013-03-09 15:22:00,43.3,30.4,30.19,NNE,22,0.0,0.0,60,0.00,,,0.00,Weather View 32 v70,2013-03-10 00:22:00,
2013-03-09 15:27:00,42.8,30.3,30.20,NNE,22,0.0,0.0,61,0.00,,,0.00,Weather View 32 v70,2013-03-10 00:27:00,
2013-03-09 15:32:00,42.6,30.5,30.20,NNE,22,0.0,0.0,62,0.00,,,0.00,Weather View 32 v70,2013-03-10 00:32:00,
2013-03-09 15:37:00,42.3,30.5,30.20,NNE,22,0.0,0.0,63,0.00,,,0.00,Weather View 32 v70,2013-03-10 00:37:00,
2013-03-09 15:42:00,42.1,30.4,30.20,NNE,22,0.0,0.0,63,0.00,,,0.00,Weather View 32 v70,2013-03-10 00:42:00,
2013-03-09 15:47:00,41.9,31.0,30.20,NNE,22,0.0,0.0,65,0.00,,,0.00,Weather View 32 v70,2013-03-10 00:47:00,
2013-03-09 15:52:00,41.9,31.0,30.20,NNE,22,0.0,0.0,65,0.00,,,0.00,Weather View 32 v70,2013-03-10 00:52:00,
2013-03-09 15:57:00,41.5,31.0,30.20,NNE,22,0.0,0.0,66,0.00,,,0.00,Weather View 32 v70,2013-03-10 00:57:00,
2013-03-09 16:02:00,41.4,30.8,30.20,NNE,22,0.0,0.0,66,0.00,,,0.00,Weather View 32 v70,2013-03-10 01:02:00,
2013-03-09 16:07:00,41.4,31.2,30.21,NNE,22,0.0,0.0,67,0.00,,,0.00,Weather View 32 v70,2013-03-10 01:07:00,
2013-03-09 16:12:00,41.2,31.4,30.21,NNE,22,0.0,0.0,68,0.00,,,0.00,Weather View 32 v70,2013-03-10 01:12:00,
2013-03-09 16:17:00,40.8,31.1,30.21,NNE,22,0.0,0.0,68,0.00,,,0.00,Weather View 32 v70,2013-03-10 01:17:00,
2013-03-09 16:22:00,40.8,31.1,30.21,NNE,22,0.0,0.0,68,0.00,,,0.00,Weather View 32 v70,2013-03-10 01:22:00,
2013-03-09 16:27:00,40.6,31.3,30.22,NNE,22,0.0,0.0,69,0.00,,,0.00,Weather View 32 v70,2013-03-10 01:27:00,
2013-03-09 16:32:00,40.5,31.4,30.22,NNE,22,0.0,0.0,70,0.00,,,0.00,Weather View 32 v70,2013-03-10 01:32:00,
2013-03-09 16:37:00,39.7,31.4,30.22,NNE,22,0.0,0.0,72,0.00,,,0.00,Weather View 32 v70,2013-03-10 01:37:00,
2013-03-09 16:42:00,39.4,31.1,30.22,NNE,22,0.0,0.0,72,0.00,,,0.00,Weather View 32 v70,2013-03-10 01:42:00,
2013-03-09 16:47:00,39.2,31.3,30.23,NNE,22,0.0,0.0,73,0.00,,,0.00,Weather View 32 v70,2013-03-10 01:47:00,
2013-03-09 16:52:00,39.2,31.6,30.23,NNE,22,0.0,0.0,74,0.00,,,0.00,Weather View 32 v70,2013-03-10 01:52:00,
2013-03-09 16:57:00,39.2,31.6,30.23,NNE,22,0.0,0.0,74,0.00,,,0.00,Weather View 32 v70,2013-03-10 01:57:00,
2013-03-09 17:02:00,39.2,31.6,30.23,NNE,22,0.0,0.0,74,0.00,,,0.00,Weather View 32 v70,2013-03-10 02:02:00,
2013-03-09 17:07:00,39.2,31.6,30.24,NNE,22,0.0,0.0,74,0.00,,,0.00,Weather View 32 v70,2013-03-10 02:07:00,
2013-03-09 17:12:00,39.4,32.1,30.24,NNE,22,0.0,0.0,75,0.00,,,0.00,Weather View 32 v70,2013-03-10 02:12:00,
2013-03-09 17:17:00,38.8,31.6,30.24,NNE,22,0.0,0.0,75,0.00,,,0.00,Weather View 32 v70,2013-03-10 02:17:00,
2013-03-09 17:22:00,39.0,32.1,30.24,NNE,22,0.0,0.0,76,0.00,,,0.00,Weather View 32 v70,2013-03-10 02:22:00,
2013-03-09 17:27:00,38.5,31.6,30.25,NNE,22,0.0,0.0,76,0.00,,,0.00,Weather View 32 v70,2013-03-10 02:27:00,
2013-03-09 17:32:00,38.5,31.6,30.25,NNE,22,0.0,0.0,76,0.00,,,0.00,Weather View 32 v70,2013-03-10 02:32:00,
2013-03-09 17:37:00,38.5,31.9,30.25,NNE,22,0.0,0.0,77,0.00,,,0.00,Weather View 32 v70,2013-03-10 02:37:00,
2013-03-09 17:42:00,38.3,32.0,30.25,NNE,22,0.0,0.0,78,0.00,,,0.00,Weather View 32 v70,2013-03-10 02:42:00,
2013-03-09 17:47:00,37.9,31.7,30.25,NNE,22,0.0,0.0,78,0.00,,,0.00,Weather View 32 v70,2013-03-10 02:47:00,
2013-03-09 17:52:00,37.8,31.8,30.25,NNE,22,0.0,0.0,79,0.00,,,0.00,Weather View 32 v70,2013-03-10 02:52:00,
2013-03-09 17:57:00,37.4,31.5,30.25,NNE,22,0.0,0.0,79,0.00,,,0.00,Weather View 32 v70,2013-03-10 02:57:00,
2013-03-09 18:02:00,37.4,31.5,30.25,NNE,22,0.0,0.0,79,0.00,,,0.00,Weather View 32 v70,2013-03-10 03:02:00,
2013-03-09 18:07:00,37.0,31.4,30.25,NNE,22,0.0,0.0,80,0.00,,,0.00,Weather View 32 v70,2013-03-10 03:07:00,
2013-03-09 18:12:00,36.9,31.3,30.25,NNE,22,0.0,0.0,80,0.00,,,0.00,Weather View 32 v70,2013-03-10 03:12:00,
2013-03-09 18:17:00,36.9,31.3,30.25,NNE,22,0.0,0.0,80,0.00,,,0.00,Weather View 32 v70,2013-03-10 03:17:00,
2013-03-09 18:22:00,36.9,31.6,30.25,NNE,22,0.0,0.0,81,0.00,,,0.00,Weather View 32 v70,2013-03-10 03:22:00,
2013-03-09 18:27:00,36.3,31.0,30.26,NNE,22,0.0,0.0,81,0.00,,,0.00,Weather View 32 v70,2013-03-10 03:27:00,
2013-03-09 18:32:00,36.5,31.2,30.26,NNE,22,0.0,0.0,81,0.00,,,0.00,Weather View 32 v70,2013-03-10 03:32:00,
2013-03-09 18:37:00,36.1,30.9,30.26,NNE,22,0.0,0.0,81,0.00,,,0.00,Weather View 32 v70,2013-03-10 03:37:00,
2013-03-09 18:42:00,36.1,30.9,30.26,NNE,22,0.0,0.0,81,0.00,,,0.00,Weather View 32 v70,2013-03-10 03:42:00,
2013-03-09 18:47:00,36.0,31.0,30.27,NNE,22,0.0,0.0,82,0.00,,,0.00,Weather View 32 v70,2013-03-10 03:47:00,
2013-03-09 18:53:00,35.8,30.8,30.27,NNE,22,0.0,0.0,82,0.00,,,0.00,Weather View 32 v70,2013-03-10 03:53:00,
2013-03-09 18:58:00,35.4,30.5,30.27,NNE,22,0.0,0.0,82,0.00,,,0.00,Weather View 32 v70,2013-03-10 03:58:00,
2013-03-09 19:03:00,35.4,30.5,30.27,NNE,22,0.0,0.0,82,0.00,,,0.00,Weather View 32 v70,2013-03-10 04:03:00,
2013-03-09 19:08:00,34.9,30.2,30.26,NNE,22,0.0,0.0,83,0.00,,,0.00,Weather View 32 v70,2013-03-10 04:08:00,
2013-03-09 19:13:00,34.9,30.2,30.26,NNE,22,0.0,0.0,83,0.00,,,0.00,Weather View 32 v70,2013-03-10 04:13:00,
2013-03-09 19:18:00,34.7,30.4,30.26,NNE,22,0.0,0.0,84,0.00,,,0.00,Weather View 32 v70,2013-03-10 04:18:00,
2013-03-09 19:23:00,34.7,30.4,30.26,NNE,22,0.0,0.0,84,0.00,,,0.00,Weather View 32 v70,2013-03-10 04:23:00,
2013-03-09 19:28:00,34.7,30.4,30.25,NNE,22,0.0,0.0,84,0.00,,,0.00,Weather View 32 v70,2013-03-10 04:28:00,
2013-03-09 19:33:00,34.3,30.0,30.25,NNE,22,0.0,0.0,84,0.00,,,0.00,Weather View 32 v70,2013-03-10 04:33:00,
2013-03-09 19:38:00,34.2,30.1,30.25,NNE,22,0.0,0.0,85,0.00,,,0.00,Weather View 32 v70,2013-03-10 04:38:00,
2013-03-09 19:43:00,34.0,29.9,30.25,NNE,22,0.0,0.0,85,0.00,,,0.00,Weather View 32 v70,2013-03-10 04:43:00,
2013-03-09 19:48:00,34.0,29.9,30.25,NNE,22,0.0,0.0,85,0.00,,,0.00,Weather View 32 v70,2013-03-10 04:48:00,
2013-03-09 19:53:00,33.8,29.8,30.25,NNE,22,0.0,0.0,85,0.00,,,0.00,Weather View 32 v70,2013-03-10 04:53:00,
2013-03-09 19:58:00,33.6,29.6,30.25,NNE,22,0.0,0.0,85,0.00,,,0.00,Weather View 32 v70,2013-03-10 04:58:00,
2013-03-09 20:00:00,33.6,29.6,30.25,NNE,22,0.0,0.0,85,0.00,,,0.00,Weather View 32 v70,2013-03-10 05:00:00,
2013-03-09 20:05:00,33.4,29.4,30.25,NNE,22,0.0,0.0,85,0.00,,,0.00,Weather View 32 v70,2013-03-10 05:05:00,
2013-03-09 20:10:00,33.4,29.4,30.25,NNE,22,0.0,0.0,85,0.00,,,0.00,Weather View 32 v70,2013-03-10 05:10:00,
2013-03-09 20:15:00,33.4,29.4,30.25,NNE,22,0.0,0.0,85,0.00,,,0.00,Weather View 32 v70,2013-03-10 05:15:00,
2013-03-09 20:20:00,33.3,29.2,30.25,NNE,22,0.0,0.0,85,0.00,,,0.00,Weather View 32 v70,2013-03-10 05:20:00,
2013-03-09 20:25:00,33.3,29.5,30.26,NNE,22,0.0,0.0,86,0.00,,,0.00,Weather View 32 v70,2013-03-10 05:25:00,
2013-03-09 20:30:00,33.3,29.5,30.26,NNE,22,0.0,0.0,86,0.00,,,0.00,Weather View 32 v70,2013-03-10 05:30:00,
2013-03-09 20:35:00,33.3,29.5,30.26,NNE,22,0.0,0.0,86,0.00,,,0.00,Weather View 32 v70,2013-03-10 05:35:00,
2013-03-09 20:40:00,33.1,29.3,30.26,NNE,22,0.0,0.0,86,0.00,,,0.00,Weather View 32 v70,2013-03-10 05:40:00,
2013-03-09 20:46:00,32.9,29.2,30.27,NNE,22,0.0,0.0,86,0.00,,,0.00,Weather View 32 v70,2013-03-10 05:46:00,
2013-03-09 20:51:00,32.9,29.2,30.27,NNE,22,0.0,0.0,86,0.00,,,0.00,Weather View 32 v70,2013-03-10 05:51:00,
2013-03-09 20:56:00,32.7,29.0,30.27,NNE,22,0.0,0.0,86,0.00,,,0.00,Weather View 32 v70,2013-03-10 05:56:00,
2013-03-09 21:01:00,32.5,28.8,30.27,NNE,22,0.0,0.0,86,0.00,,,0.00,Weather View 32 v70,2013-03-10 06:01:00,
2013-03-09 21:06:00,32.2,28.7,30.27,NNE,22,0.0,0.0,87,0.00,,,0.00,Weather View 32 v70,2013-03-10 06:06:00,
2013-03-09 21:11:00,31.8,28.4,30.27,NNE,22,0.0,0.0,87,0.00,,,0.00,Weather View 32 v70,2013-03-10 06:11:00,
2013-03-09 21:16:00,31.5,27.8,30.27,NNE,22,0.0,0.0,86,0.00,,,0.00,Weather View 32 v70,2013-03-10 06:16:00,
2013-03-09 21:21:00,31.1,27.4,30.27,NNE,22,0.0,0.0,86,0.00,,,0.00,Weather View 32 v70,2013-03-10 06:21:00,
2013-03-09 21:26:00,30.7,27.0,30.27,NNE,22,0.0,0.0,86,0.00,,,0.00,Weather View 32 v70,2013-03-10 06:26:00,
2013-03-09 21:31:00,30.4,26.7,30.27,NNE,22,0.0,0.0,86,0.00,,,0.00,Weather View 32 v70,2013-03-10 06:31:00,
2013-03-09 21:36:00,30.4,27.0,30.27,NNE,22,0.0,0.0,87,0.00,,,0.00,Weather View 32 v70,2013-03-10 06:36:00,
2013-03-09 21:41:00,30.0,26.6,30.27,NNE,22,0.0,0.0,87,0.00,,,0.00,Weather View 32 v70,2013-03-10 06:41:00,
2013-03-09 21:46:00,29.8,26.4,30.27,NNE,22,0.0,0.0,87,0.00,,,0.00,Weather View 32 v70,2013-03-10 06:46:00,
2013-03-09 21:51:00,29.8,26.4,30.27,NNE,22,0.0,0.0,87,0.00,,,0.00,Weather View 32 v70,2013-03-10 06:51:00,
2013-03-09 21:56:00,29.7,26.3,30.27,NNE,22,0.0,0.0,87,0.00,,,0.00,Weather View 32 v70,2013-03-10 06:56:00,
2013-03-09 22:01:00,29.7,26.5,30.27,NNE,22,0.0,0.0,88,0.00,,,0.00,Weather View 32 v70,2013-03-10 07:01:00,
2013-03-09 22:06:00,29.1,26.0,30.28,NNE,22,0.0,0.0,88,0.00,,,0.00,Weather View 32 v70,2013-03-10 07:06:00,
2013-03-09 22:11:00,28.9,25.8,30.28,NNE,22,0.0,0.0,88,0.00,,,0.00,Weather View 32 v70,2013-03-10 07:11:00,
2013-03-09 22:16:00,28.9,25.8,30.28,NNE,22,0.0,0.0,88,0.00,,,0.00,Weather View 32 v70,2013-03-10 07:16:00,
2013-03-09 22:21:00,28.9,25.8,30.28,NNE,22,0.0,0.0,88,0.00,,,0.00,Weather View 32 v70,2013-03-10 07:21:00,
2013-03-09 22:26:00,28.9,25.8,30.28,NNE,22,0.0,0.0,88,0.00,,,0.00,Weather View 32 v70,2013-03-10 07:26:00,
2013-03-09 22:31:00,28.9,25.8,30.28,NNE,22,0.0,0.0,88,0.00,,,0.00,Weather View 32 v70,2013-03-10 07:31:00,
2013-03-09 22:36:00,29.3,26.2,30.28,NNE,22,0.0,0.0,88,0.00,,,0.00,Weather View 32 v70,2013-03-10 07:36:00,
2013-03-09 22:41:00,29.5,26.6,30.28,NNE,22,0.0,0.0,89,0.00,,,0.00,Weather View 32 v70,2013-03-10 07:41:00,
2013-03-09 22:46:00,29.7,26.8,30.29,NNE,22,0.0,0.0,89,0.00,,,0.00,Weather View 32 v70,2013-03-10 07:46:00,
2013-03-09 22:51:00,30.0,27.2,30.29,NNE,22,0.0,0.0,89,0.00,,,0.00,Weather View 32 v70,2013-03-10 07:51:00,
2013-03-09 22:56:00,30.4,27.5,30.29,NNE,22,0.0,0.0,89,0.00,,,0.00,Weather View 32 v70,2013-03-10 07:56:00,
2013-03-09 23:01:00,30.7,27.9,30.29,NNE,22,0.0,0.0,89,0.00,,,0.00,Weather View 32 v70,2013-03-10 08:01:00,
2013-03-09 23:06:00,30.6,27.7,30.29,NNE,22,0.0,0.0,89,0.00,,,0.00,Weather View 32 v70,2013-03-10 08:06:00,
2013-03-09 23:11:00,31.1,28.2,30.29,NNE,22,0.0,0.0,89,0.00,,,0.00,Weather View 32 v70,2013-03-10 08:11:00,
2013-03-09 23:16:00,31.1,28.2,30.29,NNE,22,0.0,0.0,89,0.00,,,0.00,Weather View 32 v70,2013-03-10 08:16:00,
2013-03-09 23:21:00,31.1,28.2,30.29,NNE,22,0.0,0.0,89,0.00,,,0.00,Weather View 32 v70,2013-03-10 08:21:00,
2013-03-09 23:26:00,31.1,28.2,30.30,NNE,22,0.0,0.0,89,0.00,,,0.00,Weather View 32 v70,2013-03-10 08:26:00,
2013-03-09 23:31:00,31.3,28.4,30.30,NNE,22,0.0,0.0,89,0.00,,,0.00,Weather View 32 v70,2013-03-10 08:31:00,
2013-03-09 23:36:00,31.3,28.4,30.30,NNE,22,0.0,0.0,89,0.00,,,0.00,Weather View 32 v70,2013-03-10 08:36:00,
2013-03-09 23:41:00,31.5,28.6,30.30,NNE,22,0.0,0.0,89,0.00,,,0.00,Weather View 32 v70,2013-03-10 08:41:00,
2013-03-09 23:46:00,31.5,28.6,30.30,NNE,22,0.0,0.0,89,0.00,,,0.00,Weather View 32 v70,2013-03-10 08:46:00,
2013-03-09 23:51:00,31.8,28.9,30.30,NNE,22,0.0,0.0,89,0.00,,,0.00,Weather View 32 v70,2013-03-10 08:51:00,
2013-03-09 23:56:00,31.6,28.8,30.30,NNE,22,0.0,0.0,89,0.00,,,0.00,Weather View 32 v70,2013-03-10 08:56:00,